Printer-friendly version

IAU Minor Planet Center

Minor Planet Center

MPEC 2001-P27: 2001 LE6

The following Minor Planet Electronic Circular may be linked-to from your own Web pages, but must not otherwise be redistributed electronically.


Read MPEC 2001-P26 Read MPEC 2001-P28


M.P.E.C. 2001-P27                                Issued 2001 Aug. 10, 12:50 UT

     The Minor Planet Electronic Circulars contain information on unusual
         minor planets and routine data on comets.  They are published
   on behalf of Commission 20 of the International Astronomical Union by the
          Minor Planet Center, Smithsonian Astrophysical Observatory,
                          Cambridge, MA 02138, U.S.A.

             Prepared using the Tamkin Foundation Computer Network

                              MPC@CFA.HARVARD.EDU
          URL http://cfa-www.harvard.edu/iau/mpc.html  ISSN 1523-6714

                                   2001 LE6

                           Revision to MPEC 2001-M14

Observations:
     K01L06E 2 1997 06 09.74250 20 46 19.70 -36 23 58.7                      260
     K01L06E 2 1997 06 09.75292 20 46 14.66 -36 24 02.4                      260

Observer details:
260 Siding Spring-DSS.  Observer M. Hartley.  Trail located and measured by
    ANEOPP (M. Read, A. Boattini, G. Forti).  1.2-m Schmidt.

First and last observations above in comparison with prediction:
Residuals in seconds of arc (or two decimals in degrees), reference and Delta-T
970609 260 0.02- 0.12-    970609 260 0.02- 0.12-    MPO 15104   +0.11 day

Orbital elements:
2001 LE6
Epoch 2001 Oct. 18.0 TT = JDT 2452200.5                 Williams
M 158.46687              (2000.0)            P               Q
n   0.74407840     Peri.  201.40217     -0.66155023     -0.72139208
a   1.2061193      Node   290.65171     +0.71587683     -0.52619454
e   0.6930540      Incl.   12.64257     +0.22331963     -0.45023635
P   1.32           H   17.4           G   0.15           U   5
Residuals in seconds of arc
970609 260  1.7-  0.3+    010617 644 (0.1-  2.3-)   010625 711  0.3-  0.0
970609 260  1.4-  0.2+    010618 644  0.5-  0.1-    010625 711  0.4-  0.2+
010615 644  0.3-  0.4+    010618 644  0.3-  0.4+    010625 670  0.2-  1.7+
010615 644  0.2-  0.2+    010618 644  0.6-  0.3+    010625 422  0.2+  0.1-
010615 644  0.0   0.3+    010618 422  0.2+  0.2+    010625 422  0.4+  0.1-
010615 422  0.3-  0.2-    010618 422  0.2-  0.0     010625 422  0.2+  0.0
010615 422  0.3+  0.0     010619 493  0.8+  0.2-    010626 118  0.6+  0.3-
010615 422  0.2+  0.2-    010619 493  0.7+  0.1+    010626 118  0.8-  0.6-
010616 620  0.2+  0.1-    010619 644  0.5-  0.3-    010626 118  0.8+  1.0-
010616 620  1.4+  0.5+    010619 644  0.5-  0.3-    010703 413  0.5+  0.4+
010616 620  1.9+  0.2-    010619 649  0.2+  0.7-    010703 413  0.1+  0.2+
010616 428  0.0   0.6+    010619 919  0.6+  0.8+    010723 711 (2.2+  9.5-)
010616 428 (3.4-  0.8+)   010619 919  0.5+  0.3-    010723 711 (5.8-  5.0-)
010616 428  0.8+  1.2+    010619 919  1.6+  0.2+    010723 711  0.8-  0.4-
010617 860 (3.3-  0.1+)   010619 649  0.7+  1.7-    010724 950  1.2-  0.2+
010617 860  0.4-  0.2+    010619 644  0.3-  0.6-    010724 950  1.5-  0.1+
010617 860 (3.6-  1.6+)   010619 649  0.9-  0.6+    010724 950  0.8-  0.4+
010617 859  1.0+  0.2-    010619 649  0.1-  1.0-    010724 950  1.3-  0.5+
010617 859  0.4-  1.0-    010623 046  0.6+  0.0     010724 950  0.7-  0.6+
010617 644 (0.2-  2.0-)   010623 046  0.6+  0.2+
010617 644 (0.0   2.5-)   010625 711  0.3+  0.7-

Ephemeris:
2001 LE6                 a,e,i = 1.21, 0.69, 13                  q = 0.3702
Date    TT    R. A. (2000) Decl.     Delta      r     Elong.  Phase     V
2001 08 09    17 42.58   -22 53.1    0.969    1.793   129.5    25.9    19.8
2001 08 19    17 40.94   -22 04.7    1.120    1.842   119.5    28.6    20.2
2001 08 29    17 43.75   -21 30.4    1.278    1.886   110.5    30.1    20.6
2001 09 08    17 49.84   -21 05.5    1.439    1.923   102.2    30.8    20.9
2001 09 18    17 58.38   -20 45.9    1.601    1.956    94.5    30.8    21.2
2001 09 28    18 08.85   -20 28.3    1.761    1.983    87.2    30.3    21.4
2001 10 08    18 20.81   -20 10.3    1.917    2.005    80.1    29.4    21.6
2001 10 18    18 33.96   -19 49.9    2.067    2.021    73.4    28.2    21.8
2001 10 28    18 48.09   -19 25.6    2.208    2.033    66.8    26.7    21.9
2001 11 07    19 02.99   -18 56.1    2.340    2.040    60.4    25.0    21.9

Gareth V. Williams           (C) Copyright 2001 MPC           M.P.E.C. 2001-P27

Read MPEC 2001-P26 Read MPEC 2001-P28


Our Web policy. Index to the CBAT/MPC/ICQ pages.


Valid HTML 4.01!